Regional Weather Roundup
Issued by NWS

Home | Current Version | Previous Version | Graphics & Text | Print | Product List | Glossary On
Versions: 1 2 3 4 5 6 7 8 9 10 11 12 13 14 15 16 17 18 19 20 21 22 23 24 25 26 27 28 29 30 31 32 33 34 35 36 37 38 39 40 41 42 43 44 45 46 47 48 49 50
000
ASUS45 KSLC 270010
RWRUT

UTAH REGIONAL WEATHER ROUNDUP
NATIONAL WEATHER SERVICE SALT LAKE CITY UT
500 PM MST MON JAN 26 2015

UTZ001>011-023>025-270100-

NORTHERN UTAH

CITY           SKY/WX    TMP DP  RH WIND       PRES   REMARKS
BRIGHAM CITY   CLEAR     51  36  56 NW5       30.21S
HILL AFB       CLEAR     47  28  46 NW7       30.20S
LOGAN          CLEAR     44  35  70 SW3       30.22F
OGDEN          CLEAR     47  34  60 NW6       30.20S
PROVO AIRPORT  CLEAR     43  30  61 VRB3      30.21
SALT LAKE CITY PTCLDY    45  35  68 W8        30.20F
VERNAL         CLEAR     47  24  40 CALM      30.31F
WENDOVER       CLEAR     45  32  61 S3        30.23F
HEBER CITY     CLEAR     43  30  61 CALM      30.24S
WEST JORDAN    CLEAR     46  37  71 NW8       30.21F

$$

UTZ012>022-026-027-270100-

SOUTHERN/CENTRAL UTAH

CITY           SKY/WX    TMP DP  RH WIND       PRES   REMARKS
BLANDING       PTCLDY    50  23  34 CALM      30.37S
BRYCE CANYON   PTCLDY    47  23  38 S5        30.32F
CEDAR CITY     MOCLDY    54  31  41 N3        30.20F
DELTA          CLEAR     50  35  56 CALM      30.23S
MILFORD        MOCLDY    52  34  50 NE6       30.20F
MOAB/CYNLANDS  CLEAR     49  29  46 NW8       30.26R
PRICE          CLEAR     54  24  31 E6        30.27R
ST GEORGE      CLEAR     64  28  25 CALM      30.14S
KANAB          PTCLDY    54  25  32 NE8       30.26S

$$

REGIONAL REPORTS     COLORADO/ARIZONA

CITY           SKY/WX    TMP DP  RH WIND       PRES   REMARKS
CRAIG, CO      CLEAR     37  26  64 CALM      30.34S
GRAND JUNCTION CLEAR     53  26  35 SE9       30.24F
RIFLE          CLEAR     49  26  41 S3        30.27F
MONTROSE       CLEAR     54  24  31 N3        30.29F
CORTEZ         CLEAR     50  26  39 CALM      30.31R
PAGE, AZ       NOT AVBL
GRAND CANYON   PTCLDY    50  23  34 NE14      30.26S
KINGMAN        CLOUDY    60  24  25 SW12      30.14F
FLAGSTAFF      MOCLDY    48  26  42 E9        30.27S

$$

REGIONAL REPORTS    NEVADA/IDAHO/WYOMING

CITY           SKY/WX    TMP DP  RH WIND       PRES   REMARKS
LAS VEGAS, NV  CLOUDY    68  30  24 S8        30.07R
ELY            MOCLDY    55  27  34 NE7       30.19F
ELKO           PTCLDY    61  31  32 CALM      30.13F
POCATELLO, ID  CLEAR     45  37  73 NE12      30.22F
BURLEY         CLEAR     47  36  65 NE14      30.17S
EVANSTON, WY   PTCLDY    49  31  49 CALM      30.29F
ROCK SPRINGS   CLEAR     49  27  42 E5        30.30S
KEMMERER       CLEAR     46  28  49 CALM      30.31F

$$


USA.gov is the U.S. government's official web portal to all federal, state and local government web resources and services.